Regional Weather Roundup
Issued by NWS

Home | Current Version | Previous Version | Graphics & Text | Print | Product List | Glossary On
Versions: 1 2 3 4 5 6 7 8 9 10 11 12 13 14 15 16 17 18 19 20 21 22 23 24 25 26 27 28 29 30 31 32 33 34 35 36 37 38 39 40 41 42 43 44 45 46 47 48 49 50
000
ASUS43 KDTX 051110
RWRMI
MICHIGAN HOURLY REGIONAL WEATHER ROUNDUP
NATIONAL WEATHER SERVICE DETROIT/PONTIAC MI
600 AM EST MON DEC 05 2016

NOTE: "FAIR" INDICATES FEW OR NO CLOUDS BELOW 12,000 FEET WITH NO
SIGNIFICANT WEATHER AND/OR OBSTRUCTION TO VISIBILITY.

MIZ047>049-052>055-059>063-066>070-074>076-081>083-051200-
SOUTHEAST LOWER MICHIGAN

CITY           SKY/WX    TMP DP  RH WIND       PRES   REMARKS
ADRIAN         CLOUDY    35  32  88 W12       30.00R WCI  27
ALMA           CLOUDY    34  32  93 SW10      29.91R WCI  26
ANN ARBOR      CLOUDY    34  32  92 SW8       29.95R WCI  27
BAD AXE        CLOUDY    32  32  99 W10G16    29.87R FOG     WCI  24
CARO           CLOUDY    33  32  96 SW7       29.89R FOG     WCI  27
DETROIT CITY   CLOUDY    35  33  92 W8        29.95R WCI  29
DETROIT        CLOUDY    35  33  92 SW10      29.96R FOG     WCI  27
FLINT          CLOUDY    34  32  92 W14       29.92R WCI  25
GROSSE ILE     CLOUDY    35  32  88 W8        29.95R WCI  29
HILLSDALE      CLOUDY    32  32 100 W12G18    29.96R WCI  23
HOWELL         CLOUDY    34  32  92 W7        29.92R WCI  28

CITY           SKY/WX    TMP DP  RH WIND       PRES   REMARKS
JACKSON        CLOUDY    34  31  88 W12       29.96R WCI  25
LAMBERTVILLE   CLOUDY    37  33  84 W7        29.99R WCI  32
LANSING        CLOUDY    35  31  85 W14       29.94R WCI  26
LAPEER         NOT AVBL
MASON          CLOUDY    34  32  94 W5        29.94R WCI  30
MONROE         CLOUDY    36  33  90 W13G21    29.96R WCI  27
MT. CLEMENS    CLOUDY    36  34  92 SW9       29.91R WCI  29
PONTIAC        CLOUDY    34  31  88 W15       29.91R WCI  24
PORT HOPE        N/A     34  32  92 SW9G17    29.82R WCI  27
PORT HURON     CLOUDY    34  32  93 SW5       29.92R WCI  30
TRI CITIES     CLOUDY    34  33  96 SW10      29.90R WCI  26
MIDLAND        CLOUDY    34  32  93 SW6       29.88R WCI  29
TROY           CLOUDY    36  32  87 SW6       29.94R WCI  31
SAGINAW HB     CLOUDY    34  32  93 SW7       29.89R WCI  28
$$
MIZ043>046-050>051-056>058-064>065-071>073-077>080-051200-
SOUTHWEST LOWER MICHIGAN

CITY           SKY/WX    TMP DP  RH WIND       PRES   REMARKS
BATTLE CREEK   CLOUDY    34  33  96 W13       29.97R WCI  25
BENTON HARBOR  CLOUDY    36  31  82 W12       30.00R WCI  28
BIG RAPIDS     CLOUDY    35  31  86 W12       29.87R WCI  26
COLDWATER      CLOUDY    34  32  93 W10       29.98R WCI  26
FREMONT        CLOUDY    34  31  88 W7        29.91R WCI  28
HOLLAND        CLOUDY    37  32  82 W14       29.96R WCI  28
GRAND RAPIDS   CLOUDY    34  31  88 W10       29.95R WCI  26
IONIA          CLOUDY    34  32  92 W9        29.92R WCI  26
KALAMAZOO      CLOUDY    35  31  85 SW10      29.98R WCI  27
LUDINGTON      CLOUDY    37  33  84 W12G18    29.89R WCI  30
MARSHALL       CLOUDY    34  33  94 W9        29.97R WCI  27
MOUNT PLEASANT CLOUDY    33  32  94 W8        29.88R WCI  27
MUSKEGON       CLOUDY    38  32  79 W17G23    29.94R WCI  28
SOUTH HAVEN    CLOUDY    38  34  84 W10       29.98R WCI  32
$$
MIZ016>042-051200-
NORTHERN LOWER MICHIGAN

CITY           SKY/WX    TMP DP  RH WIND       PRES   REMARKS
ALPENA         CLOUDY    33  31  92 SW6       29.79S WCI  28
BEAVER ISLAND  CLOUDY    37  33  87 W20       29.76S WCI  26
BELLAIRE       CLOUDY    34  33  96 S6        29.80S WCI  29
CADILLAC       CLOUDY    32  31  95 W10G16    29.81R WCI  24
CHARLEVOIX     CLOUDY    38  33  82 W17G23    29.80S WCI  28
FRANKFORT      CLOUDY    38  33  82 W16G23    29.84R WCI  29
GAYLORD        LGT SNOW  33  29  85 W14       29.77R FOG     WCI  23
GRAYLING       CLOUDY    33  32  96 SW5       29.81R WCI  29
HARBOR SPRINGS CLOUDY    37  35  90 SW16G23   29.76S WCI  28
HOUGHTON LAKE  CLOUDY    33  30  88 W10       29.82R WCI  25
MANISTEE       CLOUDY    37  32  82 W15G23    29.86R WCI  28
OSCODA         CLOUDY    33  32  94 MISG      29.82R
PELLSTON       LGT RAIN  34  31  88 SW7       29.76S WCI  28
ROGERS CITY    CLOUDY    33  32  95 CALM      29.78R
TRAVERSE CITY  CLOUDY    35  32  88 SW6       29.81S VSB 1   WCI  30
$$
MIZ007>008-015-051200-
EASTERN UPPER MICHIGAN

CITY           SKY/WX    TMP DP  RH WIND       PRES   REMARKS
KINROSS        CLOUDY    32  32 100 SW5       29.73S WCI  27
MACKINAC ISLAN CLOUDY    34  34 100 W10G16    29.74S WCI  26
NEWBERRY       CLOUDY    32  31  97 SW12      29.73R WCI  23
S. S. MARIE    LGT SNOW  33  32  96 SE5       29.72F FOG     WCI  29
MUNISING         N/A     33  31  92 S8        29.73S WCI  26
$$
MIZ004>006-011>014-085-051200-
CENTRAL UPPER MICHIGAN

CITY           SKY/WX    TMP DP  RH WIND       PRES   REMARKS
MANISTIQUE     CLOUDY    33  31  94 W6        29.76R WCI  27
ESCANABA       MOCLDY    31  30  96 W5        29.78R WCI  26
MENOMINEE      CLOUDY    33  32  96 SW7       29.83R WCI  27
SAWYER-GWINN   LGT SNOW  31  30  96 SW6       29.72R WCI  25
$$
MIZ001>003-009>011-084-051200-
WESTERN UPPER MICHIGAN

CITY           SKY/WX    TMP DP  RH WIND       PRES   REMARKS
IRON MOUNTAIN  CLOUDY    34  28  79 SW7       29.74R WCI  28
HOUGHTON       CLOUDY    34  30  85 W17       29.66R WCI  23
COPPER HARBOR    N/A     33  31  92 W8        29.66S WCI  26
IRONWOOD       CLOUDY    33  29  85 W13       29.74R WCI  24
$$

ABBREVIATIONS USED IN REMARKS
   TC - TEMPERATURE IN CELSIUS
  WCI - WIND CHILL INDEX
   HX - HEAT INDEX
  VSB - VISIBILITY





USA.gov is the U.S. government's official web portal to all federal, state and local government web resources and services.